Content
SEND FEEDBACK

Daily
Averages
Monthly
Summary
United States of America

NEWALLA, OKLAHOMA


Home > North America > United States > Oklahoma
Elevation: 1150 feet     Latitude: 35 17N     Longitude: 097 13W

WEATHER
 
SELECT A DAY
Number of Records: 334,110;   Date Range: 9/29/00 - 7/26/14
 
SHARE

PRINT THIS DATA

[ ← Previous Day ]
WEATHER ALMANAC - JANUARY 31, 2013
[ Next Day → ]
[ °C ]   °F
Weather ElementAverageHighLow
Temperature39 °F57.2 °F (1:15 pm)26.6 °F (10:35 pm)
Dewpoint26.1 °F32 °F (12:55 pm)19.4 °F (11:15 pm)
Humidity62.3 %87 % (7:55 pm)38 % (12:15 pm)
Barometer30.16 in30.41 in (9:55 pm)30.04 in (4:15 am)
Wind Speed9.8 mph21.9 mph (3:55 pm)
Wind Gust27.6 mph (8:15 pm)
Weather ElementAverage
Visibility10 mi
Wind DirectionSSE (141.9 °)

Weather ElementTotal
Precipitation---
Heating Degree Days23.1 (Base 65)
Averaged from 69 records on January 31, 2013
WEATHER CONDITIONS BREAKOUT
WIND DIRECTION BREAKOUT
WEATHER BY HOUR - JANUARY 31, 2013
[ °C ]   °F
Local TimeTemperatureDewpointHumidityBarometerVisibilityWind DirectionWind SpeedGust SpeedPrecipitationEventsConditions
12:35 AM32.0 °F23.0 °F69 %30.06 in10.0 miSW (220°)3.5 mphClear
12:55 AM32.0 °F23.0 °F69 %30.06 in10.0 miSW (220°)4.6 mphClear
1:15 AM32.0 °F21.2 °F64 %30.06 in10.0 miSW (230°)4.6 mphClear
1:35 AM32.0 °F21.2 °F64 %30.05 in10.0 miSW (220°)5.8 mphClear
1:55 AM32.0 °F21.2 °F64 %30.05 in10.0 miSSW (200°)5.8 mphClear
2:15 AM32.0 °F23.0 °F69 %30.05 in10.0 miSW (220°)6.9 mphClear
2:35 AM32.0 °F21.2 °F64 %30.05 in10.0 miSW (230°)6.9 mphClear
2:55 AM32.0 °F21.2 °F64 %30.05 in10.0 miSW (230°)4.6 mphClear
3:15 AM32.0 °F21.2 °F64 %30.05 in10.0 miCalmClear
3:35 AM32.0 °F21.2 °F64 %30.05 in10.0 miCalmClear
3:55 AM32.0 °F21.2 °F64 %30.05 in10.0 miSW (230°)4.6 mphClear
4:15 AM32.0 °F21.2 °F64 %30.04 in10.0 miSSW (210°)3.5 mphClear
4:35 AM30.2 °F23.0 °F75 %30.04 in10.0 miSW (220°)5.8 mphClear
4:55 AM32.0 °F23.0 °F69 %30.04 in10.0 miSW (220°)4.6 mphClear
5:15 AM28.4 °F23.0 °F80 %30.04 in10.0 miSSW (200°)6.9 mphClear
5:35 AM30.2 °F23.0 °F75 %30.04 in10.0 miSouth (170°)3.5 mphClear
5:55 AM30.2 °F23.0 °F75 %30.05 in10.0 miSouth (180°)4.6 mphClear
6:15 AM30.2 °F23.0 °F75 %30.05 in10.0 miSouth (190°)5.8 mphClear
6:35 AM28.4 °F23.0 °F80 %30.05 in10.0 miSouth (180°)4.6 mphClear
6:55 AM28.4 °F21.2 °F74 %30.07 in10.0 miSouth (180°)4.6 mphClear
7:15 AM30.2 °F23.0 °F75 %30.07 in10.0 miSouth (180°)5.8 mphClear
7:55 AM30.2 °F23.0 °F75 %30.08 in10.0 miSouth (190°)5.8 mphClear
8:15 AM32.0 °F24.8 °F75 %30.08 in10.0 miSouth (190°)4.6 mphClear
8:35 AM33.8 °F26.6 °F75 %30.09 in10.0 miSouth (180°)5.8 mphClear
8:55 AM35.6 °F26.6 °F70 %30.09 in10.0 miSouth (170°)4.6 mphClear
9:15 AM37.4 °F24.8 °F60 %30.10 in10.0 miSSW (200°)5.8 mphClear
9:35 AM41.0 °F24.8 °F53 %30.11 in10.0 miSSW (200°)5.8 mphClear
9:55 AM42.8 °F26.6 °F53 %30.11 in10.0 miSSW (200°)8.1 mphClear
10:15 AM44.6 °F26.6 °F49 %30.11 in10.0 miSSW (200°)8.1 mphClear
10:35 AM46.4 °F26.6 °F46 %30.12 in10.0 miSW (220°)8.1 mphClear
10:55 AM50.0 °F28.4 °F43 %30.10 in10.0 miSSW (210°)9.2 mphClear
11:15 AM51.8 °F28.4 °F41 %30.10 in10.0 miSouth (190°)13.8 mphClear
11:35 AM51.8 °F28.4 °F41 %30.10 in10.0 miSSW (210°)10.4 mphClear
11:55 AM53.6 °F30.2 °F41 %30.10 in10.0 miSW (230°)10.4 mphClear
12:15 PM55.4 °F30.2 °F38 %30.09 in10.0 miWSW (240°)8.1 mphClear
12:35 PM55.4 °F30.2 °F38 %30.09 in10.0 miWSW (250°)8.1 mphClear
12:55 PM55.4 °F32.0 °F41 %30.09 in10.0 miWNW (290°)8.1 mphClear
1:15 PM57.2 °F32.0 °F38 %30.09 in10.0 miWest (280°)11.5 mphClear
1:35 PM57.2 °F32.0 °F38 %30.09 in10.0 miNW (310°)9.2 mphClear
1:55 PM57.2 °F32.0 °F38 %30.10 in10.0 miNW (320°)9.2 mphClear
2:15 PM57.2 °F32.0 °F38 %30.10 in10.0 miNNW (330°)9.2 mph16.1 mphClear
2:35 PM57.2 °F32.0 °F38 %30.10 in10.0 miNorth (360°)12.7 mphClear
2:55 PM57.2 °F32.0 °F38 %30.10 in10.0 miNNW (340°)10.4 mphClear
3:15 PM55.4 °F30.2 °F38 %30.11 in10.0 miNorth (10°)15.0 mph19.6 mphClear
3:35 PM55.4 °F30.2 °F38 %30.13 in10.0 miNorth (10°)16.1 mph21.9 mphClear
3:55 PM53.6 °F32.0 °F44 %30.14 in10.0 miNorth (10°)21.9 mphClear
4:15 PM51.8 °F32.0 °F47 %30.17 in10.0 miNorth (10°)21.9 mph26.5 mphClear
4:35 PM50.0 °F32.0 °F50 %30.19 in10.0 miNNE (20°)17.3 mph24.2 mphClear
4:55 PM48.2 °F32.0 °F54 %30.21 in10.0 miNorth (10°)16.1 mph24.2 mphClear
5:15 PM46.4 °F32.0 °F57 %30.22 in10.0 miNNE (20°)16.1 mphClear
5:35 PM44.6 °F32.0 °F61 %30.25 in10.0 miNNE (20°)18.4 mph24.2 mphClear
5:55 PM41.0 °F32.0 °F70 %30.27 in10.0 miNNE (30°)16.1 mphClear
6:15 PM41.0 °F30.2 °F65 %30.29 in10.0 miNorth (10°)10.4 mphClear
6:35 PM37.4 °F30.2 °F75 %30.31 in10.0 miNorth (10°)17.3 mphClear
6:55 PM37.4 °F30.2 °F75 %30.33 in10.0 miNNE (20°)15.0 mph19.6 mphClear
7:15 PM35.6 °F28.4 °F75 %30.34 in10.0 miNNE (30°)18.4 mphClear
7:35 PM33.8 °F28.4 °F81 %30.35 in10.0 miNNE (20°)13.8 mphClear
7:55 PM32.0 °F28.4 °F87 %30.37 in10.0 miNNE (20°)19.6 mph24.2 mphClear
8:15 PM32.0 °F26.6 °F80 %30.37 in10.0 miNNE (20°)20.7 mph27.6 mphClear
8:35 PM30.2 °F24.8 °F80 %30.39 in10.0 miNNE (20°)15.0 mph23.0 mphClear
8:55 PM30.2 °F23.0 °F75 %30.40 in10.0 miNNE (20°)15.0 mphClear
9:15 PM28.4 °F23.0 °F80 %30.40 in10.0 miNNE (20°)15.0 mph20.7 mphClear
9:35 PM28.4 °F23.0 °F80 %30.40 in10.0 miNNE (30°)13.8 mphClear
9:55 PM28.4 °F21.2 °F74 %30.41 in10.0 miNNE (30°)10.4 mphClear
10:15 PM28.4 °F21.2 °F74 %30.41 in10.0 miNNE (30°)11.5 mphClear
10:35 PM26.6 °F21.2 °F80 %30.40 in10.0 miNNE (30°)11.5 mphClear
10:55 PM26.6 °F21.2 °F80 %30.40 in10.0 miNNE (30°)10.4 mphClear
11:15 PM26.6 °F19.4 °F74 %30.41 in10.0 miNE (40°)6.9 mphClear
11:35 PM26.6 °F19.4 °F74 %30.40 in10.0 miNNE (30°)9.2 mphClear
Hourly data recorded from KOUN, located miles away from Newalla, Oklahoma







STORIES FROM OUR PARTNERS